Weather observations for the past three days for
Truckee-Tahoe
Imperial (Metric)
Date Time (pdt) Wind (mph) Vis. (mi.) Weather Sky Cond. Temperature (ºF) Relative Humidity Wind Chill (°F) Heat Index (°F) Pressure Precipitation (in)
Air Dwpt 6 hour altimeter (in) sea level (mb) 1 hr 3 hr 6 hr
Max. Min.
20 16:47 S 16 G 29 10.00 Mostly Cloudy BKN120 BKN160 86 39.2 19% 83 30.26 0.0
20 15:47 SW 8 10.00 Mostly Cloudy SCT015 BKN160 87.8 46.4 24% 85 30.26 0.0
20 14:48 SW 9 10.00 Mostly Cloudy BKN150 87.8 44.6 22% 85 30.26 0.0
20 13:49 S 9 10.00 Partly Cloudy SCT150 91.4 41 17% 87 30.27 0.0
20 12:47 Calm 10.00 Partly Cloudy SCT150 87.8 41 19% 84 30.29 0.0
20 11:50 Calm 10.00 Partly Cloudy SCT150 89.6 42.8 20% 86 30.3 0.0
20 10:48 Calm 10.00 Partly Cloudy SCT120 82.4 44.6 26% 81 30.31 0.0
20 09:48 Calm 10.00 Partly Cloudy SCT120 73.4 44.6 36% 30.33 0.0
20 08:50 Calm 10.00 Partly Cloudy SCT120 66.2 42.8 43% 30.34 0.0
20 07:45 Calm 10.00 Partly Cloudy SCT120 57.2 42.8 59% 30.33 0.0
20 06:47 Calm 10.00 Partly Cloudy SCT120 51.8 42.8 72% 30.32 0.0
20 06:35 Calm 10.00 Fair CLR 50 42.8 76% 30.32 0.0
20 06:15 Calm 10.00 Fair CLR 46.4 41 82% 30.32 0.0
20 05:55 Calm 10.00 Fair CLR 48.2 41 76% 30.32 0.0
20 05:35 Calm 10.00 Fair CLR 48.2 42.8 82% 30.32 0.0
20 05:15 Calm 10.00 Fair CLR 50 42.8 76% 30.31 0.0
20 04:55 Calm 10.00 Fair CLR 50 42.8 76% 30.31 0.0
20 04:35 Calm 10.00 Fair CLR 51.8 42.8 72% 30.31 0.0
20 04:15 Calm 10.00 Fair CLR 51.8 42.8 72% 30.31 0.0
20 03:55 Calm 10.00 Fair CLR 51.8 42.8 72% 30.31 0.0
20 03:35 Calm 10.00 Fair CLR 50 42.8 76% 30.31 0.0
20 03:15 Calm 10.00 Fair CLR 51.8 42.8 72% 30.31 0.0
20 02:55 Calm 10.00 Fair CLR 51.8 41 67% 30.31 0.0
20 02:35 Calm 10.00 Fair CLR 51.8 39.2 62% 30.32 0.0
20 02:15 Calm 10.00 Fair CLR 53.6 39.2 58% 30.32 0.0
20 01:55 Calm 10.00 Fair CLR 53.6 39.2 58% 30.32 0.0
20 01:35 Calm 10.00 Fair CLR 53.6 41 63% 30.33 0.0
20 01:15 Calm 10.00 Fair CLR 55.4 42.8 63% 30.33 0.0
20 00:55 S 5 10.00 Fair CLR 53.6 41 63% 30.33 0.0
20 00:35 Calm 10.00 Fair CLR 59 42.8 55% 30.33 0.0
20 00:15 Calm 10.00 Fair CLR 57.2 42.8 59% 30.33 0.0
19 23:55 Calm 10.00 Fair CLR 55.4 42.8 63% 30.32 0.0
19 23:35 Calm 10.00 Fair CLR 62.6 41 45% 30.33 0.0
19 23:15 Calm 10.00 Fair CLR 62.6 41 45% 30.33 0.0
19 22:55 Calm 10.00 Fair CLR 62.6 42.8 49% 30.33 0.0
19 22:35 Calm 10.00 Fair CLR 59 41 51% 30.33 0.0
19 22:15 Calm 10.00 Fair CLR 64.4 42.8 46% 30.33 0.0
19 21:55 Calm 10.00 Fair CLR 62.6 41 45% 30.33 0.0
19 21:35 S 3 10.00 Fair CLR 64.4 41 43% 30.33 0.0
19 21:15 E 5 10.00 Partly Cloudy SCT110 68 41 38% 30.32 0.0
19 20:55 Calm 10.00 Partly Cloudy SCT110 69.8 42.8 38% 30.31 0.0
19 20:35 SW 3 10.00 Fair CLR 77 37.4 24% 77 30.31 0.0
19 20:15 Calm 10.00 Fair CLR 78.8 37.4 23% 78 30.3 0.0
19 19:48 SW 5 10.00 A Few Clouds FEW120 82.4 37.4 20% 80 30.29 0.0
19 18:48 W 9 10.00 A Few Clouds FEW120 86 33.8 15% 83 30.28 0.0
19 17:48 W 9 10.00 A Few Clouds FEW100 87.8 35.6 16% 84 30.28 0.0
19 16:50 SW 14 G 18 10.00 A Few Clouds FEW100 89.6 39.2 17% 86 30.29 0.0
19 15:47 SW 13 G 16 10.00 A Few Clouds FEW100 89.6 42.8 20% 86 30.29 0.0
19 14:50 SW 16 10.00 Partly Cloudy SCT100 89.6 42.8 20% 86 30.31 0.0
19 13:48 W 9 10.00 Partly Cloudy SCT100 87.8 41 19% 84 30.31 0.0
19 12:49 Calm 10.00 Partly Cloudy SCT110 87.8 42.8 21% 84 30.31 0.0
19 11:49 Calm 10.00 Fair CLR 82.4 42.8 25% 80 30.33 0.0
19 10:49 Calm 10.00 Fair CLR 78.8 37.4 23% 78 30.34 0.0
19 09:49 Calm 10.00 Fair CLR 71.6 42.8 36% 30.35 0.0
19 08:48 Calm 10.00 Partly Cloudy SCT110 62.6 42.8 49% 30.37 0.0
19 07:50 Calm 10.00 Partly Cloudy SCT110 57.2 41 55% 30.37 0.0
19 06:50 Calm 10.00 Partly Cloudy SCT110 50 39.2 67% 30.36 0.0
19 06:35 Calm 10.00 Mostly Cloudy BKN110 50 39.2 67% 30.36 0.0
19 06:15 Calm 10.00 Mostly Cloudy BKN120 46.4 37.4 71% 30.35 0.0
19 05:55 Calm 10.00 Mostly Cloudy BKN110 46.4 39.2 76% 30.36 0.0
19 05:35 Calm 10.00 Partly Cloudy SCT110 44.6 35.6 71% 30.35 0.0
19 05:15 Calm 10.00 Partly Cloudy SCT120 48.2 37.4 66% 30.35 0.0
19 04:55 Calm 10.00 Fair CLR 50 37.4 62% 30.34 0.0
19 04:35 Calm 10.00 Fair CLR 48.2 37.4 66% 30.34 0.0
19 04:15 Calm 10.00 Fair CLR 46.4 37.4 71% 30.34 0.0
19 03:55 E 3 10.00 Partly Cloudy SCT120 50 37.4 62% 30.34 0.0
19 03:35 Calm 10.00 Mostly Cloudy BKN120 48.2 39.2 71% 30.34 0.0
19 03:15 Calm 10.00 Partly Cloudy SCT120 53.6 37.4 54% 30.34 0.0
19 02:55 Calm 10.00 Partly Cloudy SCT120 53.6 37.4 54% 30.34 0.0
19 02:35 Calm 10.00 Fair CLR 50 39.2 67% 30.34 0.0
19 02:15 Calm 10.00 Partly Cloudy SCT120 48.2 37.4 66% 30.35 0.0
19 01:55 Calm 10.00 Partly Cloudy SCT120 53.6 37.4 54% 30.35 0.0
19 01:35 Calm 10.00 Partly Cloudy SCT120 53.6 37.4 54% 30.34 0.0
19 01:15 Calm 10.00 Fair CLR 51.8 37.4 58% 30.34 0.0
19 00:55 Calm 10.00 Fair CLR 53.6 39.2 58% 30.34 0.0
19 00:35 Calm 10.00 Fair CLR 53.6 41 63% 30.35 0.0
19 00:15 S 3 10.00 Fair CLR 57.2 41 55% 30.35 0.0
18 23:55 Calm 10.00 Fair CLR 57.2 37.4 48% 30.35 0.0
18 23:35 Calm 10.00 Fair CLR 60.8 42.8 52% 30.35 0.0
18 23:15 S 3 10.00 Fair CLR 59 37.4 45% 30.35 0.0
18 22:55 SE 5 10.00 Fair CLR 60.8 37.4 42% 30.35 0.0
18 22:35 SE 5 10.00 Fair CLR 60.8 37.4 42% 30.34 0.0
18 22:15 SE 5 10.00 Fair CLR 62.6 37.4 39% 30.33 0.0
18 21:55 Calm 10.00 Fair CLR 64.4 37.4 37% 30.33 0.0
18 21:35 SE 8 10.00 Fair CLR 66.2 35.6 32% 30.33 0.0
18 21:15 S 6 10.00 Fair CLR 71.6 37.4 29% 30.32 0.0
18 20:55 W 5 10.00 Fair CLR 73.4 37.4 27% 30.31 0.0
18 20:35 W 9 10.00 Fair CLR 75.2 35.6 24% 76 30.3 0.0
18 20:15 W 8 10.00 Fair CLR 77 35.6 22% 77 30.29 0.0
18 19:50 W 9 10.00 Partly Cloudy SCT120 80.6 35.6 20% 79 30.29 0.0
18 18:50 W 13 G 20 10.00 Partly Cloudy SCT120 84.2 33.8 16% 81 30.28 0.0
18 17:50 W 13 G 20 10.00 Partly Cloudy SCT120 84.2 32 15% 81 30.27 0.0
18 16:48 W 14 G 20 10.00 Partly Cloudy SCT120 86 30.2 13% 83 30.28 0.0
18 15:50 SW 16 G 20 10.00 Partly Cloudy SCT120 84.2 30.2 14% 81 30.28 0.0
18 14:50 SW 10 G 17 10.00 Partly Cloudy SCT120 87.8 26.6 11% 84 30.28 0.0
18 13:50 W 9 10.00 Partly Cloudy SCT120 87.8 24.8 10% 84 30.28 0.0
18 12:49 SW 8 10.00 A Few Clouds FEW250 84.2 33.8 16% 81 30.28 0.0
18 11:50 Calm 10.00 A Few Clouds FEW250 80.6 33.8 18% 79 30.29 0.0
18 10:49 Calm 10.00 Fair CLR 71.6 35.6 27% 30.31 0.0
18 09:45 Calm 10.00 Fair CLR 60.8 33.8 36% 30.32 0.0
18 08:50 Calm 10.00 Partly Cloudy SCT120 55.4 33.8 44% 30.33 0.0
18 07:49 Calm 10.00 Partly Cloudy SCT110 48.2 33.8 58% 30.33 0.0
18 06:50 Calm 10.00 Mostly Cloudy SCT120 BKN150 42.8 30.2 61% 30.32 0.0
18 06:35 Calm 10.00 Fair CLR 41 32 70% 30.32 0.0
18 06:15 Calm 10.00 Partly Cloudy SCT110 41 32 70% 30.32 0.0
18 05:55 Calm 10.00 Partly Cloudy SCT120 42.8 32 66% 30.31 0.0
18 05:35 Calm 10.00 Partly Cloudy SCT120 41 33.8 76% 30.31 0.0
18 05:15 Calm 10.00 Partly Cloudy SCT110 39.2 32 75% 30.31 0.0
18 04:55 Calm 10.00 Mostly Cloudy BKN110 39.2 32 75% 30.31 0.0
18 04:35 Calm 10.00 Partly Cloudy SCT120 41 32 70% 30.31 0.0
18 04:15 Calm 10.00 Mostly Cloudy BKN110 41 33.8 76% 30.3 0.0
18 03:55 Calm 10.00 Partly Cloudy SCT110 41 32 70% 30.31 0.0
18 03:35 Calm 10.00 Partly Cloudy SCT110 42.8 33.8 71% 30.3 0.0
18 03:15 Calm 10.00 Partly Cloudy SCT120 42.8 33.8 71% 30.3 0.0
18 02:55 Calm 10.00 Fair CLR 44.6 33.8 66% 30.31 0.0
18 02:35 Calm 10.00 Fair CLR 41 32 70% 30.3 0.0
18 02:15 Calm 10.00 Fair CLR 44.6 32 61% 30.31 0.0
18 01:55 Calm 10.00 Fair CLR 44.6 35.6 71% 30.31 0.0
18 01:35 Calm 10.00 Fair CLR 42.8 33.8 71% 30.31 0.0
18 01:15 Calm 10.00 Fair CLR 46.4 33.8 62% 30.31 0.0
18 00:55 Calm 10.00 Fair CLR 46.4 32 57% 30.31 0.0
18 00:35 Calm 10.00 Fair CLR 46.4 33.8 62% 30.31 0.0
18 00:15 Calm 10.00 Fair CLR 46.4 33.8 62% 30.31 0.0
17 23:55 Calm 10.00 Fair CLR 50 33.8 54% 30.31 0.0
17 23:35 Calm 10.00 Fair CLR 48.2 33.8 58% 30.31 0.0
17 23:15 Calm 10.00 Fair CLR 51.8 33.8 50% 30.31 0.0
17 22:55 Calm 10.00 Fair CLR 53.6 33.8 47% 30.31 0.0
17 22:35 Calm 10.00 Fair CLR 53.6 32 44% 30.3 0.0
17 22:15 Calm 10.00 Fair CLR 53.6 33.8 47% 30.3 0.0
17 21:55 Calm 10.00 Fair CLR 59 33.8 39% 30.3 0.0
17 21:35 SE 5 10.00 Fair CLR 59 33.8 39% 30.3 0.0
17 21:15 S 5 10.00 Fair CLR 59 33.8 39% 30.29 0.0
17 20:55 SE 6 10.00 Fair CLR 62.6 32 32% 30.29 0.0
17 20:35 W 6 10.00 Fair CLR 69.8 32 25% 30.28 0.0
17 20:15 W 8 10.00 Fair CLR 71.6 32 23% 30.28 0.0
17 19:48 SW 9 10.00 Fair CLR 75.2 30.2 19% 76 30.28 0.0
17 18:48 SW 9 10.00 Fair CLR 78.8 32 18% 78 30.26 0.0
Date Time (pdt) Wind (mph) Vis. (mi.) Weather Sky Cond. Air Dwpt Max. Min. Relative Humidity Wind Chill (°F) Heat Index (°F) altimeter (in) sea level (mb) 1 hr 3 hr 6 hr
6 hour
Temperature (ºF) Pressure Precipitation (in)